This is the latest recevied weather packets stored in our database for station/object K8RRT. If no packets are shown the sender has not sent any weather packets the latest 10 day(s).
| Time | Temp. | Humidity | Pressure | Rain* | Wind** | Luminosity | Snow |
|---|---|---|---|---|---|---|---|
| 1777581937 | 13.33° C | 62% | 1011.3 hPa | 0 mm | - | 219 W/m² | - |
| 1777581633 | 13.89° C | 61% | 1011.1 hPa | 0 mm | - | 134 W/m² | - |
| 1777581326 | 13.89° C | 64% | 1011.2 hPa | 0 mm | - | 577 W/m² | - |
| 1777581022 | 13.89° C | 62% | 1011 hPa | 0 mm | - | 605 W/m² | - |
| 1777580721 | 13.33° C | 64% | 1011.2 hPa | 0 mm | - | 435 W/m² | - |
| 1777580418 | 12.78° C | 63% | 1011.2 hPa | 0 mm | - | 379 W/m² | - |
| 1777580113 | 12.78° C | 63% | 1011.6 hPa | 0 mm | - | 213 W/m² | - |
| 1777579810 | 12.78° C | 63% | 1011.4 hPa | 0 mm | - | 221 W/m² | - |
| 1777579509 | 13.33° C | 65% | 1011.5 hPa | 0 mm | - | 242 W/m² | - |
| 1777579204 | 12.78° C | 66% | 1011.7 hPa | 0 mm | - | 322 W/m² | - |
| 1777578898 | 12.78° C | 67% | 1011.7 hPa | 0 mm | - | 247 W/m² | - |
| 1777578595 | 12.78° C | 65% | 1011.6 hPa | 0 mm | - | 241 W/m² | - |
| 1777578289 | 12.22° C | 65% | 1011.8 hPa | 0 mm | - | 160 W/m² | - |
| 1777577985 | 12.78° C | 66% | 1011.8 hPa | 0 mm | - | 136 W/m² | - |
| 1777577680 | 12.78° C | 66% | 1011.7 hPa | 0 mm | - | 183 W/m² | - |
| 1777577378 | 13.33° C | 63% | 1011.8 hPa | 0 mm | - | 578 W/m² | - |
| 1777577073 | 13.33° C | 62% | 1011.7 hPa | 0 mm | - | 304 W/m² | - |
| 1777576771 | 12.78° C | 66% | 1011.9 hPa | 0 mm | - | 826 W/m² | - |
| 1777576470 | 12.78° C | 66% | 1011.8 hPa | 0 mm | - | 214 W/m² | - |
| 1777576167 | 13.33° C | 68% | 1011.8 hPa | 0 mm | - | 401 W/m² | - |
| 1777575861 | 12.78° C | 65% | 1011.7 hPa | 0 mm | - | 789 W/m² | - |
| 1777575559 | 12.78° C | 64% | 1011.5 hPa | 0 mm | - | 751 W/m² | - |
| 1777575254 | 12.22° C | 68% | 1011.4 hPa | 0 mm | - | 875 W/m² | - |
| 1777574950 | 12.78° C | 65% | 1011.7 hPa | 0 mm | - | 548 W/m² | - |
| 1777574646 | 12.22° C | 69% | 1011.6 hPa | 0 mm | - | 568 W/m² | - |
* Rain latest hour (hover to see other rain measurements)
** Current wind speed in m/s (hover to see current wind gust speed)